Flag for Paraguay Weather past 2 weeks in Ciudad del Este, Paraguay

Now
77 °F

Sunny.


Feels Like: 79 °F
Forecast: N/A
Wind: 5 mph from South

Location: Foz Do Iguacu Aeroporto

Current Time: Apr 25, 2015 at 4:40:44 PM

Latest Report: Apr 25, 2015 at 4:00 PM


Visibility: 10 mi

Pressure: 30.01 "Hg

Humidity: 57%

Dew point: 61 °F

Location of Ciudad del EsteLocation

Historic Weather in Ciudad del Este — Graph

°F

Ciudad del Este temperature yesterday

Maximum temperature yesterday: 79 °F (at 2:00 PM)
Minimum temperature yesterday: 59 °F (at 4:00 AM)
Average temperature yesterday: 67 °F

Past Weeks' High & Low Weather Summary

 TemperatureHumidityPressure
High88 °F (Apr 11, 1:00 PM)100% (Apr 12, 4:00 AM)30.15 "Hg (Apr 12, 4:00 AM)
Low57 °F (Apr 25, 1:00 AM)40% (Apr 11, 2:00 PM)29.74 "Hg (Apr 20, 3:00 PM)
Average72 °F86%29.95 "Hg
* Reported Apr 10 3:00 PM — Apr 25 3:00 PM, Ciudad del Este, Weather by CustomWeather, © 2015

Note: Actual official high and low records may vary slightly from our data, if they occured in-between our weather recording intervals... More about our weather records

Advertising

Ciudad del Este weather history for previous 24 hours

 ConditionsComfort  
Time TempWeatherWind HumidityBarometerVisibility
3:00 PM
Sat, Apr 25
77 °FSunny.7 mph54%30.04 "Hg10 mi
2:00 PM79 °FSunny.6 mph54%30.04 "Hg10 mi
1:00 PM77 °FSunny.6 mph54%30.07 "Hg10 mi
12:00 PM77 °FSunny.3 mph61%30.09 "Hg10 mi
11:00 AM73 °FSunny.8 mph69%30.12 "Hg10 mi
10:00 AM72 °FSunny.7 mph69%30.15 "Hg10 mi
9:00 AM66 °FScattered clouds.3 mph88%30.15 "HgN/A
8:00 AM63 °FFog.5 mph94%30.15 "Hg1 mi
7:00 AM59 °FFog.2 mph100%30.15 "Hg0 mi
6:00 AM59 °FFog.No wind94%30.12 "Hg0 mi
5:48 AM59 °FFog.No wind94%30.12 "Hg0 mi
5:00 AM57 °FFog.2 mph100%30.12 "Hg0 mi
4:00 AM59 °FFog.2 mph94%30.09 "Hg0 mi
3:00 AM59 °FFog.2 mph94%30.09 "Hg0 mi
2:00 AM59 °FFog.3 mph100%30.12 "Hg3 mi
1:00 AM57 °FClear.2 mph100%30.12 "Hg10 mi
12:00 AM59 °FClear.2 mph100%30.12 "Hg10 mi
11:00 PM
Fri, Apr 24
61 °FClear.2 mph100%30.09 "Hg10 mi
10:00 PM63 °FClear.2 mph94%30.09 "Hg10 mi
9:00 PM66 °FClear.3 mph88%30.09 "Hg10 mi
8:00 PM66 °FClear.2 mph88%30.07 "Hg10 mi
7:00 PM68 °FClear.5 mph83%30.07 "Hg10 mi
6:00 PM68 °FClear.6 mph83%30.04 "Hg10 mi
5:00 PM73 °FClear.6 mph74%30.04 "Hg10 mi
4:00 PM77 °FSunny.7 mph57%30.04 "Hg10 mi
Weather by CustomWeather, © 2015

See weather overviewHow to use our weather pages